Weather History for KCKV - November, 2014

Change the Weather History Date:

Sunday, November 30, 2014

  Actual Average Record
Temperature  
Mean Temperature 65 °F -  
Max Temperature 69 °F - 73 °F (1970)
Min Temperature 61 °F - 11 °F (1976)
Degree Days  
Heating Degree Days 0    
Month to date heating degree days 666  
Since 1 July heating degree days 891  
Cooling Degree Days 0    
Month to date cooling degree days 0  
Growing Degree Days 15 (Base 50)    
Moisture  
Dew Point 55 °F    
Average Humidity 70    
Maximum Humidity 78    
Minimum Humidity 63    
Precipitation  
Precipitation 0.00 in - 1.22 in (2004)
Month to date precipitation 1.99  
Sea Level Pressure  
Sea Level Pressure 30.04 in    
Wind  
Wind Speed 15 mph (SSW)    
Max Wind Speed 26 mph    
Max Gust Speed 35 mph    
Visibility 10 miles    
Events      
T = Trace of Precipitation, MM = Missing Value Source: NWS Daily Summary

Daily Weather History Graph

Daily Weather History Graph

Search for Another Location

Airport or City:

Trip Planner

Search our weather history database for the weather conditions in past years. The results will help you decide how hot, cold, wet, or windy it might be!

Date:

Astronomy

Nov. 30, 2014 Rise Set
Actual Time 6:42 AM CST 4:34 PM CST
Civil Twilight 6:14 AM CST 5:02 PM CST
Nautical Twilight 5:42 AM CST 5:34 PM CST
Astronomical Twilight 5:10 AM CST 6:05 PM CST
Moon 12:55 PM CST (11/30) 12:22 AM CST (11/30)
Length of Visible Light 10h 48m
Length of Day
9h 51m
Waxing Gibbous, 65% of the Moon is Illuminated
Nov 30
Waxing Gibbous
Dec 6
Full
Dec 14
Last Quarter
Dec 21
New
Dec 28
First Quarter

Hourly Weather History & Observations

Time (CST) Temp. Dew Point Humidity Pressure Visibility Wind Dir Wind Speed Gust Speed Precip Events Conditions
12:52 AM 63.0 °F 53.1 °F 70% 29.96 in 10.0 mi SSW 21.9 mph 28.8 mph N/A   Overcast
1:52 AM 62.1 °F 53.1 °F 72% 29.97 in 10.0 mi SSW 16.1 mph 23.0 mph N/A   Overcast
2:16 AM 62.1 °F 53.1 °F 72% 29.98 in 10.0 mi SW 13.8 mph 29.9 mph N/A   Overcast
2:28 AM 62.1 °F 53.1 °F 72% 29.98 in 10.0 mi SSW 15.0 mph 32.2 mph N/A   Overcast
2:52 AM 62.1 °F 54.0 °F 75% 29.99 in 10.0 mi SSW 16.1 mph 26.5 mph N/A   Overcast
3:52 AM 62.1 °F 54.0 °F 75% 29.99 in 10.0 mi SSW 15.0 mph 24.2 mph N/A   Overcast
4:13 AM 62.1 °F 54.0 °F 75% 30.00 in 10.0 mi SSW 16.1 mph 21.9 mph N/A   Overcast
4:49 AM 62.6 °F 53.6 °F 72% 30.00 in 10.0 mi SSW 15.0 mph - N/A   Overcast
4:52 AM 62.1 °F 54.0 °F 75% 29.99 in 10.0 mi SSW 11.5 mph - N/A   Overcast
5:52 AM 63.0 °F 54.0 °F 72% 30.01 in 10.0 mi SSW 12.7 mph 28.8 mph N/A   Overcast
6:52 AM 63.0 °F 55.0 °F 75% 30.02 in 10.0 mi SSW 18.4 mph 27.6 mph N/A   Overcast
7:52 AM 64.0 °F 55.0 °F 73% 30.04 in 10.0 mi SSW 15.0 mph 26.5 mph N/A   Overcast
8:52 AM 64.0 °F 55.0 °F 73% 30.05 in 10.0 mi SSW 15.0 mph 24.2 mph N/A   Overcast
9:29 AM 64.9 °F 55.9 °F 73% 30.07 in 10.0 mi SSW 16.1 mph 32.2 mph N/A   Overcast
9:52 AM 64.9 °F 55.0 °F 70% 30.06 in 10.0 mi SSW 17.3 mph 26.5 mph N/A   Overcast
10:11 AM 66.0 °F 55.9 °F 70% 30.06 in 10.0 mi SSW 17.3 mph 29.9 mph N/A   Overcast
10:52 AM 66.0 °F 55.9 °F 70% 30.04 in 10.0 mi SSW 23.0 mph 31.1 mph N/A   Overcast
11:50 AM 66.2 °F 55.4 °F 68% 30.04 in 10.0 mi SSW 18.4 mph 31.1 mph N/A   Overcast
11:52 AM 66.0 °F 55.9 °F 70% 30.03 in 10.0 mi SSW 18.4 mph 31.1 mph N/A   Overcast
12:52 PM 66.9 °F 55.9 °F 68% 30.02 in 10.0 mi SW 15.0 mph 27.6 mph N/A   Overcast
1:52 PM 66.9 °F 55.9 °F 68% 30.02 in 10.0 mi SSW 13.8 mph 21.9 mph N/A   Overcast
2:52 PM 68.0 °F 55.9 °F 65% 30.02 in 10.0 mi SSW 12.7 mph 21.9 mph N/A   Overcast
3:52 PM 68.0 °F 55.0 °F 63% 30.04 in 10.0 mi SSW 8.1 mph 24.2 mph N/A   Overcast
4:52 PM 66.9 °F 55.0 °F 66% 30.06 in 10.0 mi SSW 11.5 mph 23.0 mph N/A   Overcast
5:52 PM 66.9 °F 55.0 °F 66% 30.09 in 10.0 mi SSW 5.8 mph - N/A   Overcast
6:52 PM 66.0 °F 55.0 °F 68% 30.10 in 10.0 mi SSW 8.1 mph - N/A   Overcast
7:52 PM 64.9 °F 55.0 °F 70% 30.12 in 10.0 mi South 6.9 mph - N/A   Overcast
8:52 PM 64.9 °F 55.0 °F 70% 30.13 in 10.0 mi South 6.9 mph - N/A   Overcast
9:52 PM 66.0 °F 54.0 °F 65% 30.14 in 10.0 mi SSW 9.2 mph - N/A   Overcast
10:52 PM 64.9 °F 54.0 °F 68% 30.15 in 10.0 mi SSW 11.5 mph - N/A   Mostly Cloudy
11:52 PM 64.9 °F 54.0 °F 68% 30.15 in 10.0 mi SSW 10.4 mph - N/A   Mostly Cloudy